User: anonymous
Location: Unspecified
(0.0000°N, 0.0000°E)
Time: 04:39:56
(UTC+02:00)
Language:

Cosmos 494 Rocket - Orbit

View from above orbital plane
View from above orbital plane
View from above satellite
View from above satellite

Ground track
Ground track

The orbit data is extracted from the following two-line orbital elements,

1 06061U 72043B   14113.64178564  .00000302  00000-0  10368-3 0  4104
2 06061 074.0557 144.6227 0020503 208.0241 288.3061 14.40128407192669
Epoch (UTC): 23 April 2014 15:24:10
Eccentricity: 0.0020503
inclination: 74.0557°
perigee height: 743 km
apogee height: 773 km
right ascension of ascending node: 144.6227°
argument of perigee: 208.0241°
revolutions per day: 14.40128407
mean anomaly at epoch: 288.3061°
orbit number at epoch: 19266

The dashed part of the orbit path shows where the satellite is in the earth's shadow,  

DLR